McClellan-Palomar Airport

Airport
ICAO code: 
KCRQ
IATA Code: 
CLD
Summary
ICAO Region: 
NAM
Territory: 
Location: 
Carlsbad, California
Serving: 
San Diego County
Elevation: 
331 ft
Coordinates: 
Aerial View: 
33° 7' 35.7" N, 117° 16' 43.816" W
Metar
Observation
KCRQ 021637Z 00000KT 2SM BR OVC003 12/11 A3013 RMK AO2 T01170111
Station
Carlsbad, McClellan-Palomar Airport
Date/Time
2021-12-02 16:37:00
Wind direction
Wind speed
00 kts
Lowest cloud amount
overcast
Temperature
11.7°C
Dew point
11.1°C
Humidity
96%
Weather condition
mist

McClellan–Palomar Airport, known to locals as Palomar Airport, is a public airport located 5 km southeast of the central business district of Carlsbad, a city in San Diego County, California.

Climatology

Mediterranean (Köppen climate classification Csb)

Runways

Designator Length Width Surface Rops
6/24 1493 46 ASP Yes/Yes
Airport map: 
Aerial View: 

SKYbrary Partners:

Safety knowledge contributed by: